Location: Kuffner-Sternwarte
(48.2130°N, 16.2960°E)
Time: 20:08:24
(UTC+01:00)

Envisat - Visible Passes

Search period start: 20 February 2019 00:00
Search period end: 02 March 2019 00:00
Orbit: 764 x 766 km, 98.2° (Epoch: 20 February)

Date Brightness Start Highest point End Pass type
(mag) Time Alt. Az. Time Alt. Az. Time Alt. Az.
20 Feb 2.9 18:13:42 10° SSE 18:18:45 71° ENE 18:23:50 10° N visible
20 Feb 5.8 19:55:02 10° SW 19:58:19 17° W 20:01:37 10° NW visible
21 Feb 6.0 06:19:50 10° NE 06:23:25 19° E 06:26:59 10° SE visible
21 Feb 4.7 19:16:36 10° SSW 19:21:12 34° W 19:25:50 10° NNW visible
22 Feb 3.3 18:39:14 10° S 18:44:17 71° WSW 18:49:24 10° NNW visible
23 Feb 3.1 18:02:36 10° SSE 18:07:34 58° ENE 18:12:34 10° N visible
23 Feb 5.5 19:43:10 10° SW 19:46:58 21° W 19:50:48 10° NW visible
24 Feb 6.2 06:09:07 10° NE 06:12:04 15° E 06:15:00 10° ESE visible
24 Feb 4.3 19:05:07 10° S 19:09:55 42° W 19:14:46 10° NNW visible
25 Feb 3.1 18:27:59 10° SSE 18:33:04 87° WSW 18:38:11 10° NNW visible
25 Feb 6.1 20:10:44 10° WSW 20:12:51 12° W 20:15:00 10° WNW visible
26 Feb 5.2 19:31:27 10° SSW 19:35:39 26° W 19:39:53 10° NW visible
27 Feb 6.5 05:58:42 10° ENE 06:00:42 12° E 06:02:41 10° ESE visible
27 Feb 3.9 18:53:43 10° S 18:58:39 52° W 19:03:39 10° NNW visible
28 Feb 3.0 18:16:48 10° SSE 18:21:52 77° ENE 18:26:58 10° N visible
28 Feb 5.9 19:58:28 10° SW 20:01:29 16° W 20:04:31 10° NW visible
01 Mar 4.9 19:19:51 10° SSW 19:24:21 32° W 19:28:53 10° NNW visible
